| time (UTC) | temp F | wind direction | speed MPH | gust MPH | rain 1hr in | rain 24hr in | rain mn in | humidity % | barometer mb |
| 20260504081522 | 44 | 183 | 0.0 | 0.0 | 0.00 | 0.00 | 0.00 | 84 | 1016.6 |
| 20260504050003 | 49 | 176 | 0.0 | 0.0 | 0.00 | 0.00 | 0.00 | 71 | 1016.9 |
| 20260504044502 | 50 | 177 | 0.0 | 1.0 | 0.00 | 0.00 | 0.00 | 68 | 1016.8 |
| 20260504043009 | 52 | 178 | 2.0 | 3.0 | 0.00 | 0.00 | 0.00 | 64 | 1016.6 |
| 20260504041510 | 52 | 175 | 1.0 | 4.0 | 0.00 | 0.00 | 0.00 | 63 | 1016.5 |
| 20260504040015 | 52 | 170 | 0.0 | 3.0 | 0.00 | 0.00 | 0.00 | 62 | 1016.8 |
| 20260504034520 | 53 | 172 | 1.0 | 4.0 | 0.00 | 0.00 | 0.00 | 60 | 1016.6 |
| 20260504033003 | 53 | 360 | 1.0 | 3.0 | 0.00 | 0.00 | 0.00 | 60 | 1016.9 |
| 20260504031508 | 53 | 171 | 0.0 | 3.0 | 0.00 | 0.00 | 0.00 | 58 | 1016.8 |
| 20260504030011 | 52 | 173 | 0.0 | 1.0 | 0.00 | 0.00 | 0.00 | 61 | 1016.8 |
| 20260504024516 | 53 | 169 | 0.0 | 2.0 | 0.00 | 0.00 | 0.00 | 63 | 1016.8 |
| 20260504023022 | 53 | 169 | 0.0 | 1.0 | 0.00 | 0.00 | 0.00 | 59 | 1016.7 |
| 20260504021504 | 54 | 169 | 0.0 | 1.0 | 0.00 | 0.00 | 0.00 | 59 | 1016.6 |
| 20260504020007 | 55 | 169 | 0.0 | 2.0 | 0.00 | 0.00 | 0.00 | 54 | 1016.1 |
| 20260504014510 | 57 | 360 | 0.0 | 2.0 | 0.00 | 0.00 | 0.00 | 57 | 1015.9 |
| 20260504013031 | 57 | 165 | 0.0 | 2.0 | 0.00 | 0.00 | 0.00 | 52 | 1015.7 |
| 20260504011522 | 57 | 165 | 0.0 | 2.0 | 0.00 | 0.00 | 0.00 | 52 | 1015.7 |
| 20260504010004 | 57 | 165 | 0.0 | 2.0 | 0.00 | 0.00 | 0.00 | 52 | 1015.5 |
| 20260504004508 | 59 | 165 | 0.0 | 2.0 | 0.00 | 0.00 | 0.00 | 50 | 1015.5 |
| 20260504003024 | 60 | 165 | 0.0 | 1.0 | 0.00 | 0.00 | 0.00 | 47 | 1015.4 |
| 20260504001518 | 62 | 165 | 0.0 | 1.0 | 0.00 | 0.00 | 0.00 | 45 | 1015.3 |
| 20260504000024 | 63 | 165 | 0.0 | 2.0 | 0.00 | 0.00 | 0.00 | 42 | 1015.3 |
| 20260503234508 | 64 | 164 | 1.0 | 5.0 | 0.00 | 0.00 | 0.00 | 40 | 1015.3 |
| 20260503233011 | 65 | 168 | 2.0 | 5.0 | 0.00 | 0.00 | 0.00 | 38 | 1015.3 |
| 20260503231517 | 65 | 180 | 1.0 | 8.0 | 0.00 | 0.00 | 0.00 | 37 | 1015.3 |
| 20260503230020 | 66 | 164 | 5.0 | 10.0 | 0.00 | 0.00 | 0.00 | 34 | 1015.1 |
| 20260503224529 | 67 | 167 | 3.0 | 8.0 | 0.00 | 0.00 | 0.00 | 34 | 1015.3 |
| 20260503223008 | 67 | 287 | 0.0 | 9.0 | 0.00 | 0.00 | 0.00 | 33 | 1015.4 |
| 20260503221512 | 66 | 196 | 1.0 | 6.0 | 0.00 | 0.00 | 0.00 | 33 | 1015.6 |
| 20260503220022 | 66 | 224 | 6.0 | 10.0 | 0.00 | 0.00 | 0.00 | 32 | 1015.8 |
| 20260503214523 | 66 | 174 | 2.0 | 9.0 | 0.00 | 0.00 | 0.00 | 32 | 1015.9 |
| 20260503213027 | 66 | 194 | 6.0 | 13.0 | 0.00 | 0.00 | 0.00 | 33 | 1015.9 |
| 20260503211509 | 66 | 250 | 1.0 | 10.0 | 0.00 | 0.00 | 0.00 | 34 | 1016.1 |
| 20260503210004 | 66 | 211 | 3.0 | 10.0 | 0.00 | 0.00 | 0.00 | 35 | 1016.2 |
| 20260503204505 | 65 | 242 | 2.0 | 9.0 | 0.00 | 0.00 | 0.00 | 34 | 1016.5 |
| 20260503203006 | 65 | 112 | 3.0 | 9.0 | 0.00 | 0.00 | 0.00 | 36 | 1016.7 |
| 20260503201510 | 65 | 272 | 4.0 | 11.0 | 0.00 | 0.00 | 0.00 | 35 | 1017.0 |
| 20260503200012 | 64 | 319 | 4.0 | 11.0 | 0.00 | 0.00 | 0.00 | 37 | 1017.1 |
| 20260503194519 | 64 | 289 | 2.0 | 9.0 | 0.00 | 0.00 | 0.00 | 34 | 1017.3 |
| 20260503193004 | 64 | 286 | 0.0 | 10.0 | 0.00 | 0.00 | 0.00 | 36 | 1017.4 |
| 20260503191508 | 63 | 324 | 2.0 | 11.0 | 0.00 | 0.00 | 0.00 | 36 | 1017.7 |
| 20260503190010 | 63 | 182 | 4.0 | 9.0 | 0.00 | 0.00 | 0.00 | 36 | 1017.9 |
| 20260503184519 | 62 | 250 | 2.0 | 11.0 | 0.00 | 0.00 | 0.00 | 37 | 1018.2 |
| 20260503183024 | 62 | 182 | 5.0 | 9.0 | 0.00 | 0.00 | 0.00 | 34 | 1018.4 |
| 20260503181505 | 61 | 207 | 2.0 | 10.0 | 0.00 | 0.00 | 0.00 | 35 | 1018.5 |
| 20260503180010 | 61 | 342 | 3.0 | 10.0 | 0.00 | 0.00 | 0.00 | 37 | 1018.8 |
| 20260503174512 | 60 | 254 | 5.0 | 12.0 | 0.00 | 0.00 | 0.00 | 38 | 1018.9 |
| 20260503173019 | 59 | 355 | 2.0 | 10.0 | 0.00 | 0.00 | 0.00 | 39 | 1019.1 |
| 20260503171521 | 58 | 274 | 4.0 | 12.0 | 0.00 | 0.00 | 0.00 | 38 | 1019.5 |